| time (UTC) | temp F | wind direction | speed MPH | gust MPH | rain 1hr in | rain 24hr in | rain mn in | humidity % | barometer mb |
| 20260507163944 | 85 | 121 | 3.0 | 3.0 | 0.00 | 0.00 | 0.00 | 75 | 1018.7 |
| 20260507163441 | 86 | 136 | 3.0 | 5.0 | 0.00 | 0.00 | 0.00 | 75 | 1018.8 |
| 20260507162938 | 86 | 144 | 5.0 | 8.0 | 0.00 | 0.00 | 0.00 | 74 | 1018.8 |
| 20260507162433 | 86 | 167 | 3.0 | 3.0 | 0.00 | 0.00 | 0.00 | 74 | 1018.6 |
| 20260507161931 | 84 | 86 | 5.0 | 6.0 | 0.00 | 0.00 | 0.00 | 77 | 1018.8 |
| 20260507161427 | 84 | 142 | 6.0 | 7.0 | 0.00 | 0.00 | 0.00 | 76 | 1018.9 |
| 20260507160924 | 85 | 77 | 5.0 | 5.0 | 0.00 | 0.00 | 0.00 | 75 | 1018.9 |
| 20260507160420 | 85 | 126 | 3.0 | 3.0 | 0.00 | 0.00 | 0.00 | 74 | 1019.2 |
| 20260507155916 | 85 | 116 | 5.0 | 7.0 | 0.00 | 0.00 | 0.00 | 75 | 1018.9 |
| 20260507155412 | 84 | 78 | 3.0 | 3.0 | 0.00 | 0.00 | 0.00 | 76 | 1018.9 |
| 20260507154909 | 84 | 104 | 1.0 | 2.0 | 0.00 | 0.00 | 0.00 | 76 | 1018.9 |
| 20260507154406 | 85 | 96 | 5.0 | 8.0 | 0.00 | 0.00 | 0.00 | 76 | 1018.9 |
| 20260507153903 | 85 | 106 | 5.0 | 6.0 | 0.00 | 0.00 | 0.00 | 75 | 1018.8 |
| 20260507153400 | 84 | 122 | 6.0 | 7.0 | 0.00 | 0.00 | 0.00 | 76 | 1019.0 |
| 20260507152856 | 84 | 140 | 4.0 | 5.0 | 0.00 | 0.00 | 0.00 | 76 | 1018.9 |
| 20260507152352 | 84 | 140 | 2.0 | 3.0 | 0.00 | 0.00 | 0.00 | 78 | 1018.7 |
| 20260507151848 | 84 | 104 | 2.0 | 3.0 | 0.00 | 0.00 | 0.00 | 78 | 1018.9 |
| 20260507151344 | 85 | 110 | 5.0 | 7.0 | 0.00 | 0.00 | 0.00 | 76 | 1019.0 |
| 20260507150842 | 86 | 140 | 7.0 | 7.0 | 0.00 | 0.00 | 0.00 | 74 | 1019.0 |
| 20260507150338 | 85 | 89 | 2.0 | 2.0 | 0.00 | 0.00 | 0.00 | 76 | 1018.9 |
| 20260507145835 | 85 | 139 | 4.0 | 6.0 | 0.00 | 0.00 | 0.00 | 76 | 1019.2 |
| 20260507145331 | 84 | 162 | 3.0 | 3.0 | 0.00 | 0.00 | 0.00 | 77 | 1018.9 |
| 20260507144828 | 84 | 84 | 0.0 | 1.0 | 0.00 | 0.00 | 0.00 | 77 | 1019.2 |
| 20260507144320 | 84 | 136 | 3.0 | 3.0 | 0.00 | 0.00 | 0.00 | 76 | 1019.0 |
| 20260507143816 | 84 | 78 | 3.0 | 3.0 | 0.00 | 0.00 | 0.00 | 75 | 1018.9 |
| 20260507143314 | 86 | 109 | 4.0 | 6.0 | 0.00 | 0.00 | 0.00 | 74 | 1018.7 |
| 20260507142809 | 85 | 94 | 4.0 | 7.0 | 0.00 | 0.00 | 0.00 | 74 | 1018.8 |
| 20260507142307 | 84 | 142 | 3.0 | 3.0 | 0.00 | 0.00 | 0.00 | 75 | 1018.8 |
| 20260507141803 | 84 | 107 | 3.0 | 3.0 | 0.00 | 0.00 | 0.00 | 75 | 1018.8 |
| 20260507141300 | 84 | 147 | 5.0 | 6.0 | 0.00 | 0.00 | 0.00 | 75 | 1019.0 |
| 20260507140756 | 85 | 96 | 5.0 | 6.0 | 0.00 | 0.00 | 0.00 | 75 | 1018.7 |
| 20260507140253 | 85 | 141 | 6.0 | 8.0 | 0.00 | 0.00 | 0.00 | 75 | 1018.9 |
| 20260507135750 | 84 | 87 | 3.0 | 3.0 | 0.00 | 0.00 | 0.00 | 76 | 1018.7 |
| 20260507135248 | 84 | 111 | 5.0 | 6.0 | 0.00 | 0.00 | 0.00 | 75 | 1019.0 |
| 20260507134744 | 84 | 177 | 6.0 | 7.0 | 0.00 | 0.00 | 0.00 | 75 | 1018.7 |
| 20260507134240 | 85 | 138 | 4.0 | 6.0 | 0.00 | 0.00 | 0.00 | 75 | 1018.7 |
| 20260507133736 | 84 | 153 | 5.0 | 6.0 | 0.00 | 0.00 | 0.00 | 75 | 1018.7 |
| 20260507133233 | 84 | 109 | 4.0 | 6.0 | 0.00 | 0.00 | 0.00 | 75 | 1018.6 |
| 20260507132731 | 84 | 182 | 4.0 | 5.0 | 0.00 | 0.00 | 0.00 | 74 | 1018.6 |
| 20260507132227 | 84 | 143 | 3.0 | 5.0 | 0.00 | 0.00 | 0.00 | 76 | 1018.5 |
| 20260507131724 | 84 | 166 | 3.0 | 5.0 | 0.00 | 0.00 | 0.00 | 76 | 1018.6 |
| 20260507131221 | 83 | 154 | 3.0 | 5.0 | 0.00 | 0.00 | 0.00 | 77 | 1018.7 |
| 20260507130718 | 83 | 159 | 4.0 | 6.0 | 0.00 | 0.00 | 0.00 | 77 | 1018.4 |
| 20260507130216 | 84 | 113 | 2.0 | 3.0 | 0.00 | 0.00 | 0.00 | 76 | 1018.3 |
| 20260507125714 | 84 | 99 | 2.0 | 2.0 | 0.00 | 0.00 | 0.00 | 77 | 1018.4 |
| 20260507125212 | 84 | 127 | 3.0 | 5.0 | 0.00 | 0.00 | 0.00 | 77 | 1018.2 |
| 20260507124708 | 84 | 126 | 4.0 | 5.0 | 0.00 | 0.00 | 0.00 | 79 | 1018.3 |
| 20260507124205 | 83 | 118 | 1.0 | 1.0 | 0.00 | 0.00 | 0.00 | 79 | 1018.3 |
| 20260507123703 | 83 | 175 | 3.0 | 5.0 | 0.00 | 0.00 | 0.00 | 79 | 1018.3 |
| 20260507123200 | 83 | 120 | 3.0 | 5.0 | 0.00 | 0.00 | 0.00 | 80 | 1018.2 |
| 20260507122655 | 83 | 129 | 5.0 | 6.0 | 0.00 | 0.00 | 0.00 | 79 | 1018.4 |
| 20260507122151 | 82 | 116 | 4.0 | 5.0 | 0.00 | 0.00 | 0.00 | 80 | 1018.1 |
| 20260507121648 | 82 | 108 | 3.0 | 5.0 | 0.00 | 0.00 | 0.00 | 80 | 1018.2 |
| 20260507121143 | 81 | 126 | 4.0 | 6.0 | 0.00 | 0.00 | 0.00 | 81 | 1018.2 |
| 20260507120640 | 81 | 135 | 2.0 | 2.0 | 0.00 | 0.00 | 0.00 | 81 | 1018.0 |
| 20260507120137 | 82 | 131 | 3.0 | 3.0 | 0.00 | 0.00 | 0.00 | 80 | 1018.1 |
| 20260507115633 | 82 | 114 | 2.0 | 3.0 | 0.00 | 0.00 | 0.00 | 80 | 1018.1 |
| 20260507115128 | 82 | 126 | 5.0 | 6.0 | 0.00 | 0.00 | 0.00 | 81 | 1018.1 |
| 20260507114625 | 81 | 114 | 1.0 | 1.0 | 0.00 | 0.00 | 0.00 | 81 | 1018.2 |
| 20260507114122 | 81 | 148 | 3.0 | 5.0 | 0.00 | 0.00 | 0.00 | 81 | 1018.1 |
| 20260507113619 | 81 | 127 | 3.0 | 5.0 | 0.00 | 0.00 | 0.00 | 81 | 1018.0 |
| 20260507113116 | 80 | 134 | 2.0 | 2.0 | 0.00 | 0.00 | 0.00 | 82 | 1017.8 |
| 20260507112614 | 80 | 129 | 4.0 | 6.0 | 0.00 | 0.00 | 0.00 | 82 | 1017.7 |
| 20260507112111 | 80 | 171 | 2.0 | 3.0 | 0.00 | 0.00 | 0.00 | 82 | 1017.6 |
| 20260507111608 | 80 | 161 | 5.0 | 7.0 | 0.00 | 0.00 | 0.00 | 82 | 1017.7 |
| 20260507111104 | 80 | 110 | 3.0 | 3.0 | 0.00 | 0.00 | 0.00 | 82 | 1017.5 |
| 20260507110601 | 80 | 143 | 3.0 | 5.0 | 0.00 | 0.00 | 0.00 | 82 | 1017.5 |
| 20260507110057 | 80 | 107 | 4.0 | 5.0 | 0.00 | 0.00 | 0.00 | 82 | 1017.4 |
| 20260507105554 | 80 | 113 | 2.0 | 2.0 | 0.00 | 0.00 | 0.00 | 82 | 1017.3 |
| 20260507105050 | 80 | 129 | 3.0 | 5.0 | 0.00 | 0.00 | 0.00 | 82 | 1017.2 |
| 20260507104548 | 80 | 123 | 6.0 | 8.0 | 0.00 | 0.00 | 0.00 | 81 | 1016.9 |
| 20260507104044 | 80 | 126 | 3.0 | 5.0 | 0.00 | 0.00 | 0.00 | 82 | 1017.2 |
| 20260507103540 | 80 | 128 | 5.0 | 7.0 | 0.00 | 0.00 | 0.00 | 81 | 1017.0 |
| 20260507103037 | 80 | 109 | 4.0 | 5.0 | 0.00 | 0.00 | 0.00 | 81 | 1017.1 |
| 20260507102534 | 80 | 150 | 4.0 | 5.0 | 0.00 | 0.00 | 0.00 | 81 | 1017.1 |
| 20260507102031 | 80 | 126 | 6.0 | 7.0 | 0.00 | 0.00 | 0.00 | 82 | 1017.1 |
| 20260507101525 | 80 | 125 | 3.0 | 5.0 | 0.00 | 0.00 | 0.00 | 81 | 1017.1 |
| 20260507101022 | 80 | 169 | 5.0 | 6.0 | 0.00 | 0.00 | 0.00 | 81 | 1016.7 |
| 20260507100519 | 80 | 116 | 4.0 | 7.0 | 0.00 | 0.00 | 0.00 | 81 | 1017.1 |
| 20260507100017 | 80 | 108 | 3.0 | 3.0 | 0.00 | 0.00 | 0.00 | 81 | 1016.9 |
| 20260507095515 | 80 | 76 | 5.0 | 8.0 | 0.00 | 0.00 | 0.00 | 81 | 1016.9 |
| 20260507095011 | 80 | 122 | 2.0 | 3.0 | 0.00 | 0.00 | 0.00 | 81 | 1016.9 |
| 20260507094508 | 80 | 111 | 2.0 | 2.0 | 0.00 | 0.00 | 0.00 | 81 | 1016.8 |
| 20260507094005 | 80 | 127 | 7.0 | 8.0 | 0.00 | 0.00 | 0.00 | 81 | 1016.9 |
| 20260507093502 | 80 | 132 | 3.0 | 3.0 | 0.00 | 0.00 | 0.00 | 80 | 1016.7 |
| 20260507093001 | 80 | 121 | 4.0 | 6.0 | 0.00 | 0.00 | 0.00 | 80 | 1016.7 |
| 20260507092456 | 80 | 112 | 3.0 | 5.0 | 0.00 | 0.00 | 0.00 | 80 | 1016.9 |
| 20260507091953 | 80 | 151 | 4.0 | 6.0 | 0.00 | 0.00 | 0.00 | 80 | 1016.7 |
| 20260507091450 | 80 | 116 | 4.0 | 5.0 | 0.00 | 0.00 | 0.00 | 80 | 1016.5 |
| 20260507090946 | 80 | 110 | 5.0 | 7.0 | 0.00 | 0.00 | 0.00 | 80 | 1016.4 |
| 20260507090442 | 80 | 114 | 3.0 | 3.0 | 0.00 | 0.00 | 0.00 | 80 | 1016.6 |
| 20260507085939 | 80 | 165 | 7.0 | 8.0 | 0.00 | 0.00 | 0.00 | 80 | 1016.5 |
| 20260507085436 | 80 | 117 | 5.0 | 7.0 | 0.00 | 0.00 | 0.00 | 80 | 1016.9 |
| 20260507084933 | 80 | 104 | 5.0 | 7.0 | 0.00 | 0.00 | 0.00 | 79 | 1016.5 |
| 20260507084430 | 80 | 106 | 5.0 | 7.0 | 0.00 | 0.00 | 0.00 | 79 | 1016.5 |
| 20260507083927 | 80 | 115 | 5.0 | 8.0 | 0.00 | 0.00 | 0.00 | 79 | 1016.4 |
| 20260507083423 | 80 | 163 | 3.0 | 3.0 | 0.00 | 0.00 | 0.00 | 79 | 1016.6 |
| 20260507082919 | 80 | 95 | 7.0 | 9.0 | 0.00 | 0.00 | 0.00 | 79 | 1016.6 |
| 20260507082415 | 80 | 123 | 5.0 | 7.0 | 0.00 | 0.00 | 0.00 | 79 | 1016.5 |
| 20260507081913 | 80 | 99 | 4.0 | 6.0 | 0.00 | 0.00 | 0.00 | 79 | 1016.7 |
| 20260507081409 | 80 | 114 | 5.0 | 7.0 | 0.00 | 0.00 | 0.00 | 79 | 1016.5 |
| 20260507080906 | 80 | 113 | 5.0 | 7.0 | 0.00 | 0.00 | 0.00 | 78 | 1016.6 |
| 20260507080402 | 80 | 164 | 9.0 | 11.0 | 0.00 | 0.00 | 0.00 | 79 | 1016.7 |
| 20260507075857 | 80 | 120 | 6.0 | 8.0 | 0.00 | 0.00 | 0.00 | 78 | 1016.8 |
| 20260507075353 | 80 | 127 | 7.0 | 8.0 | 0.00 | 0.00 | 0.00 | 78 | 1016.7 |
| 20260507074850 | 80 | 113 | 3.0 | 5.0 | 0.00 | 0.00 | 0.00 | 79 | 1016.9 |
| 20260507074347 | 80 | 114 | 6.0 | 7.0 | 0.00 | 0.00 | 0.00 | 78 | 1016.8 |
| 20260507073844 | 80 | 107 | 5.0 | 7.0 | 0.00 | 0.00 | 0.00 | 78 | 1016.7 |
| 20260507073341 | 80 | 135 | 7.0 | 8.0 | 0.00 | 0.00 | 0.00 | 78 | 1016.8 |
| 20260507072838 | 80 | 91 | 9.0 | 9.0 | 0.00 | 0.00 | 0.00 | 78 | 1016.9 |
| 20260507072336 | 80 | 113 | 4.0 | 6.0 | 0.00 | 0.00 | 0.00 | 78 | 1016.9 |
| 20260507071833 | 80 | 111 | 3.0 | 5.0 | 0.00 | 0.00 | 0.00 | 78 | 1017.0 |
| 20260507071330 | 80 | 117 | 8.0 | 10.0 | 0.00 | 0.00 | 0.00 | 78 | 1016.9 |
| 20260507070826 | 80 | 103 | 4.0 | 6.0 | 0.00 | 0.00 | 0.00 | 78 | 1017.1 |
| 20260507070324 | 80 | 143 | 3.0 | 5.0 | 0.00 | 0.00 | 0.00 | 78 | 1017.2 |
| 20260507065820 | 80 | 138 | 8.0 | 10.0 | 0.00 | 0.00 | 0.00 | 78 | 1017.1 |
| 20260507065317 | 80 | 126 | 7.0 | 11.0 | 0.00 | 0.00 | 0.00 | 78 | 1017.3 |
| 20260507064814 | 80 | 125 | 3.0 | 6.0 | 0.00 | 0.00 | 0.00 | 78 | 1017.4 |
| 20260507064313 | 80 | 116 | 5.0 | 9.0 | 0.00 | 0.00 | 0.00 | 78 | 1017.3 |
| 20260507063810 | 80 | 117 | 7.0 | 9.0 | 0.00 | 0.00 | 0.00 | 79 | 1017.5 |
| 20260507063307 | 80 | 81 | 4.0 | 5.0 | 0.00 | 0.00 | 0.00 | 78 | 1017.5 |
| 20260507062804 | 80 | 124 | 7.0 | 10.0 | 0.00 | 0.00 | 0.00 | 78 | 1017.7 |
| 20260507062301 | 80 | 149 | 4.0 | 6.0 | 0.00 | 0.00 | 0.00 | 78 | 1017.3 |
| 20260507061759 | 80 | 125 | 2.0 | 2.0 | 0.00 | 0.00 | 0.00 | 78 | 1017.5 |
| 20260507061256 | 80 | 124 | 5.0 | 8.0 | 0.00 | 0.00 | 0.00 | 78 | 1017.3 |
| 20260507060754 | 80 | 122 | 6.0 | 8.0 | 0.00 | 0.00 | 0.00 | 78 | 1017.5 |
| 20260507060250 | 80 | 128 | 9.0 | 13.0 | 0.00 | 0.00 | 0.00 | 78 | 1017.5 |
| 20260507055747 | 80 | 107 | 5.0 | 7.0 | 0.00 | 0.00 | 0.00 | 78 | 1017.7 |
| 20260507055242 | 80 | 90 | 5.0 | 8.0 | 0.00 | 0.00 | 0.00 | 79 | 1017.6 |
| 20260507054739 | 80 | 111 | 7.0 | 10.0 | 0.00 | 0.00 | 0.00 | 78 | 1017.7 |
| 20260507054236 | 80 | 128 | 7.0 | 9.0 | 0.00 | 0.00 | 0.00 | 77 | 1017.7 |
| 20260507053733 | 80 | 124 | 3.0 | 3.0 | 0.00 | 0.00 | 0.00 | 77 | 1018.0 |
| 20260507053231 | 80 | 111 | 10.0 | 13.0 | 0.00 | 0.00 | 0.00 | 77 | 1017.8 |
| 20260507052730 | 80 | 108 | 7.0 | 8.0 | 0.00 | 0.00 | 0.00 | 78 | 1017.9 |
| 20260507052225 | 80 | 116 | 5.0 | 8.0 | 0.00 | 0.00 | 0.00 | 77 | 1018.0 |
| 20260507051724 | 80 | 115 | 4.0 | 5.0 | 0.00 | 0.00 | 0.00 | 77 | 1018.1 |
| 20260507051220 | 80 | 124 | 5.0 | 8.0 | 0.00 | 0.00 | 0.00 | 77 | 1018.0 |
| 20260507050717 | 80 | 113 | 9.0 | 11.0 | 0.00 | 0.00 | 0.00 | 77 | 1018.1 |
| 20260507050214 | 80 | 102 | 4.0 | 6.0 | 0.00 | 0.00 | 0.00 | 77 | 1018.1 |
| 20260507045711 | 80 | 132 | 6.0 | 8.0 | 0.00 | 0.00 | 0.00 | 76 | 1018.1 |
| 20260507045207 | 80 | 111 | 8.0 | 8.0 | 0.00 | 0.00 | 0.00 | 76 | 1018.0 |
| 20260507044704 | 80 | 110 | 4.0 | 6.0 | 0.00 | 0.00 | 0.00 | 76 | 1018.2 |
| 20260507044201 | 80 | 97 | 7.0 | 8.0 | 0.00 | 0.00 | 0.00 | 76 | 1018.2 |
| 20260507043657 | 80 | 126 | 4.0 | 7.0 | 0.00 | 0.00 | 0.00 | 76 | 1018.3 |
| 20260507043154 | 80 | 102 | 7.0 | 9.0 | 0.00 | 0.00 | 0.00 | 75 | 1018.4 |
| 20260507042650 | 80 | 113 | 5.0 | 7.0 | 0.00 | 0.00 | 0.00 | 76 | 1018.3 |
| 20260507042145 | 80 | 100 | 4.0 | 5.0 | 0.00 | 0.00 | 0.00 | 76 | 1018.4 |
| 20260507041643 | 81 | 117 | 5.0 | 6.0 | 0.00 | 0.00 | 0.00 | 75 | 1018.3 |
| 20260507041139 | 80 | 83 | 4.0 | 7.0 | 0.00 | 0.00 | 0.00 | 75 | 1018.7 |
| 20260507040636 | 80 | 98 | 5.0 | 8.0 | 0.00 | 0.00 | 0.00 | 76 | 1018.5 |
| 20260507040132 | 80 | 109 | 6.0 | 7.0 | 0.00 | 0.00 | 0.00 | 77 | 1018.4 |
| 20260507035628 | 80 | 110 | 8.0 | 9.0 | 0.00 | 0.00 | 0.00 | 77 | 1018.6 |
| 20260507035124 | 80 | 125 | 7.0 | 8.0 | 0.00 | 0.00 | 0.00 | 77 | 1018.6 |
| 20260507034621 | 80 | 112 | 5.0 | 7.0 | 0.00 | 0.00 | 0.00 | 78 | 1018.2 |
| 20260507034119 | 81 | 96 | 6.0 | 8.0 | 0.00 | 0.00 | 0.00 | 78 | 1018.7 |
| 20260507033617 | 81 | 89 | 10.0 | 11.0 | 0.00 | 0.00 | 0.00 | 77 | 1018.3 |
| 20260507033114 | 81 | 94 | 9.0 | 11.0 | 0.00 | 0.00 | 0.00 | 77 | 1018.4 |
| 20260507032611 | 80 | 84 | 7.0 | 8.0 | 0.00 | 0.00 | 0.00 | 77 | 1018.3 |
| 20260507032107 | 81 | 72 | 6.0 | 8.0 | 0.00 | 0.00 | 0.00 | 78 | 1018.4 |
| 20260507031604 | 81 | 91 | 3.0 | 5.0 | 0.00 | 0.00 | 0.00 | 77 | 1018.4 |
| 20260507031101 | 81 | 99 | 8.0 | 9.0 | 0.00 | 0.00 | 0.00 | 77 | 1018.4 |
| 20260507030557 | 81 | 98 | 5.0 | 7.0 | 0.00 | 0.00 | 0.00 | 77 | 1018.2 |
| 20260507030056 | 81 | 81 | 5.0 | 6.0 | 0.00 | 0.00 | 0.00 | 77 | 1018.3 |
| 20260507025552 | 81 | 87 | 7.0 | 10.0 | 0.00 | 0.00 | 0.00 | 77 | 1018.1 |
| 20260507025049 | 81 | 103 | 6.0 | 8.0 | 0.00 | 0.00 | 0.00 | 77 | 1018.3 |
| 20260507024547 | 81 | 80 | 8.0 | 9.0 | 0.00 | 0.00 | 0.00 | 77 | 1018.1 |
| 20260507024044 | 81 | 99 | 7.0 | 8.0 | 0.00 | 0.00 | 0.00 | 77 | 1018.1 |
| 20260507023539 | 81 | 102 | 10.0 | 10.0 | 0.00 | 0.00 | 0.00 | 77 | 1018.2 |
| 20260507023038 | 81 | 83 | 4.0 | 8.0 | 0.00 | 0.00 | 0.00 | 78 | 1018.0 |
| 20260507022534 | 81 | 105 | 8.0 | 11.0 | 0.00 | 0.00 | 0.00 | 77 | 1018.1 |
| 20260507022029 | 81 | 94 | 7.0 | 11.0 | 0.00 | 0.00 | 0.00 | 77 | 1018.0 |
| 20260507021525 | 81 | 85 | 8.0 | 9.0 | 0.00 | 0.00 | 0.00 | 77 | 1018.1 |
| 20260507021022 | 81 | 90 | 5.0 | 6.0 | 0.00 | 0.00 | 0.00 | 77 | 1018.1 |
| 20260507020520 | 81 | 95 | 8.0 | 10.0 | 0.00 | 0.00 | 0.00 | 77 | 1017.9 |
| 20260507020016 | 81 | 96 | 3.0 | 5.0 | 0.00 | 0.00 | 0.00 | 77 | 1018.0 |
| 20260507015515 | 81 | 100 | 6.0 | 9.0 | 0.00 | 0.00 | 0.00 | 77 | 1018.0 |
| 20260507015012 | 81 | 97 | 4.0 | 7.0 | 0.00 | 0.00 | 0.00 | 78 | 1017.7 |
| 20260507014508 | 81 | 98 | 6.0 | 7.0 | 0.00 | 0.00 | 0.00 | 77 | 1017.8 |
| 20260507014004 | 81 | 107 | 6.0 | 7.0 | 0.00 | 0.00 | 0.00 | 77 | 1018.0 |
| 20260507013501 | 81 | 107 | 5.0 | 7.0 | 0.00 | 0.00 | 0.00 | 77 | 1018.0 |
| 20260507012958 | 81 | 85 | 6.0 | 8.0 | 0.00 | 0.00 | 0.00 | 77 | 1018.1 |
| 20260507012455 | 81 | 116 | 6.0 | 8.0 | 0.00 | 0.00 | 0.00 | 77 | 1017.9 |
| 20260507011951 | 81 | 62 | 2.0 | 2.0 | 0.00 | 0.00 | 0.00 | 77 | 1017.7 |
| 20260507011448 | 81 | 74 | 4.0 | 6.0 | 0.00 | 0.00 | 0.00 | 77 | 1018.0 |
| 20260507010944 | 81 | 68 | 7.0 | 8.0 | 0.00 | 0.00 | 0.00 | 77 | 1017.8 |
| 20260507010439 | 81 | 106 | 6.0 | 8.0 | 0.00 | 0.00 | 0.00 | 77 | 1018.1 |
| 20260507005936 | 81 | 106 | 3.0 | 5.0 | 0.00 | 0.00 | 0.00 | 76 | 1017.9 |
| 20260507005433 | 81 | 108 | 5.0 | 7.0 | 0.00 | 0.00 | 0.00 | 76 | 1018.0 |
| 20260507004930 | 81 | 91 | 3.0 | 3.0 | 0.00 | 0.00 | 0.00 | 76 | 1017.6 |
| 20260507004426 | 81 | 98 | 2.0 | 3.0 | 0.00 | 0.00 | 0.00 | 76 | 1018.0 |
| 20260507003924 | 81 | 82 | 3.0 | 5.0 | 0.00 | 0.00 | 0.00 | 76 | 1017.8 |
| 20260507003419 | 81 | 74 | 2.0 | 3.0 | 0.00 | 0.00 | 0.00 | 76 | 1018.0 |
| 20260507002914 | 81 | 127 | 5.0 | 5.0 | 0.00 | 0.00 | 0.00 | 76 | 1018.0 |
| 20260507002410 | 81 | 91 | 3.0 | 3.0 | 0.00 | 0.00 | 0.00 | 76 | 1017.9 |
| 20260507001908 | 81 | 87 | 3.0 | 5.0 | 0.00 | 0.00 | 0.00 | 76 | 1017.7 |
| 20260507001405 | 81 | 73 | 0.0 | 1.0 | 0.00 | 0.00 | 0.00 | 76 | 1017.8 |
| 20260507000902 | 81 | 108 | 3.0 | 3.0 | 0.00 | 0.00 | 0.00 | 76 | 1017.6 |
| 20260507000358 | 82 | 116 | 2.0 | 5.0 | 0.00 | 0.00 | 0.00 | 76 | 1017.6 |
| 20260506235853 | 82 | 92 | 3.0 | 5.0 | 0.00 | 0.00 | 0.00 | 75 | 1018.0 |
| 20260506235351 | 82 | 83 | 3.0 | 3.0 | 0.00 | 0.00 | 0.00 | 75 | 1017.7 |
| 20260506234846 | 82 | 113 | 4.0 | 5.0 | 0.00 | 0.00 | 0.00 | 75 | 1017.6 |
| 20260506234344 | 82 | 139 | 3.0 | 3.0 | 0.00 | 0.00 | 0.00 | 75 | 1017.9 |
| 20260506233842 | 82 | 94 | 3.0 | 5.0 | 0.00 | 0.00 | 0.00 | 74 | 1017.9 |
| 20260506233337 | 82 | 94 | 3.0 | 5.0 | 0.00 | 0.00 | 0.00 | 74 | 1017.8 |
| 20260506232835 | 82 | 108 | 2.0 | 3.0 | 0.00 | 0.00 | 0.00 | 74 | 1017.9 |
| 20260506232330 | 83 | 84 | 2.0 | 3.0 | 0.00 | 0.00 | 0.00 | 74 | 1017.7 |
| 20260506231827 | 83 | 107 | 5.0 | 7.0 | 0.00 | 0.00 | 0.00 | 74 | 1017.8 |
| 20260506231325 | 83 | 116 | 6.0 | 7.0 | 0.00 | 0.00 | 0.00 | 73 | 1017.9 |
| 20260506230822 | 83 | 80 | 2.0 | 5.0 | 0.00 | 0.00 | 0.00 | 74 | 1017.8 |
| 20260506230319 | 83 | 104 | 3.0 | 3.0 | 0.00 | 0.00 | 0.00 | 73 | 1017.7 |
| 20260506225814 | 83 | 126 | 2.0 | 3.0 | 0.00 | 0.00 | 0.00 | 73 | 1017.7 |
| 20260506225312 | 83 | 88 | 5.0 | 7.0 | 0.00 | 0.00 | 0.00 | 73 | 1017.6 |
| 20260506224809 | 83 | 101 | 2.0 | 2.0 | 0.00 | 0.00 | 0.00 | 73 | 1017.7 |
| 20260506224306 | 83 | 105 | 3.0 | 3.0 | 0.00 | 0.00 | 0.00 | 73 | 1017.5 |
| 20260506223802 | 84 | 106 | 5.0 | 7.0 | 0.00 | 0.00 | 0.00 | 73 | 1017.5 |
| 20260506223257 | 83 | 85 | 0.0 | 1.0 | 0.00 | 0.00 | 0.00 | 73 | 1017.5 |
| 20260506222754 | 83 | 117 | 4.0 | 5.0 | 0.00 | 0.00 | 0.00 | 73 | 1017.6 |
| 20260506222250 | 84 | 136 | 7.0 | 8.0 | 0.00 | 0.00 | 0.00 | 72 | 1017.2 |
| 20260506221748 | 84 | 120 | 3.0 | 3.0 | 0.00 | 0.00 | 0.00 | 72 | 1017.4 |
| 20260506221246 | 84 | 125 | 4.0 | 5.0 | 0.00 | 0.00 | 0.00 | 72 | 1017.1 |
| 20260506220743 | 84 | 146 | 5.0 | 7.0 | 0.00 | 0.00 | 0.00 | 72 | 1017.4 |
| 20260506220238 | 84 | 135 | 5.0 | 6.0 | 0.00 | 0.00 | 0.00 | 73 | 1017.2 |
| 20260506215735 | 84 | 92 | 5.0 | 6.0 | 0.00 | 0.00 | 0.00 | 72 | 1017.2 |
| 20260506215230 | 84 | 114 | 1.0 | 1.0 | 0.00 | 0.00 | 0.00 | 73 | 1017.3 |
| 20260506214722 | 84 | 140 | 3.0 | 5.0 | 0.00 | 0.00 | 0.00 | 72 | 1017.4 |
| 20260506214219 | 84 | 153 | 2.0 | 3.0 | 0.00 | 0.00 | 0.00 | 73 | 1017.3 |
| 20260506213717 | 84 | 137 | 4.0 | 6.0 | 0.00 | 0.00 | 0.00 | 72 | 1017.3 |
| 20260506213214 | 84 | 128 | 3.0 | 3.0 | 0.00 | 0.00 | 0.00 | 72 | 1017.3 |
| 20260506212711 | 84 | 138 | 4.0 | 5.0 | 0.00 | 0.00 | 0.00 | 71 | 1017.3 |
| 20260506212206 | 84 | 133 | 1.0 | 1.0 | 0.00 | 0.00 | 0.00 | 72 | 1017.1 |
| 20260506211702 | 84 | 146 | 6.0 | 8.0 | 0.00 | 0.00 | 0.00 | 70 | 1017.3 |
| 20260506211158 | 85 | 114 | 6.0 | 7.0 | 0.00 | 0.00 | 0.00 | 70 | 1017.3 |
| 20260506210655 | 85 | 130 | 1.0 | 1.0 | 0.00 | 0.00 | 0.00 | 71 | 1017.2 |
| 20260506210152 | 85 | 130 | 3.0 | 5.0 | 0.00 | 0.00 | 0.00 | 70 | 1017.2 |
| 20260506205650 | 85 | 146 | 4.0 | 5.0 | 0.00 | 0.00 | 0.00 | 69 | 1017.2 |
| 20260506205144 | 86 | 131 | 1.0 | 2.0 | 0.00 | 0.00 | 0.00 | 69 | 1017.4 |
| 20260506204642 | 86 | 180 | 5.0 | 6.0 | 0.00 | 0.00 | 0.00 | 69 | 1017.4 |
| 20260506204139 | 85 | 218 | 3.0 | 3.0 | 0.00 | 0.00 | 0.00 | 69 | 1017.6 |
| 20260506203637 | 85 | 136 | 5.0 | 6.0 | 0.00 | 0.00 | 0.00 | 70 | 1017.6 |
| 20260506203133 | 85 | 101 | 5.0 | 6.0 | 0.00 | 0.00 | 0.00 | 70 | 1017.6 |
| 20260506202632 | 85 | 154 | 6.0 | 7.0 | 0.00 | 0.00 | 0.00 | 70 | 1017.7 |
| 20260506202127 | 85 | 121 | 3.0 | 3.0 | 0.00 | 0.00 | 0.00 | 70 | 1017.8 |
| 20260506201625 | 85 | 93 | 1.0 | 2.0 | 0.00 | 0.00 | 0.00 | 70 | 1017.8 |
| 20260506201121 | 86 | 111 | 5.0 | 6.0 | 0.00 | 0.00 | 0.00 | 69 | 1017.6 |
| 20260506200618 | 85 | 157 | 3.0 | 3.0 | 0.00 | 0.00 | 0.00 | 69 | 1017.6 |
| 20260506200115 | 85 | 102 | 3.0 | 5.0 | 0.00 | 0.00 | 0.00 | 71 | 1017.8 |
| 20260506195611 | 85 | 117 | 4.0 | 5.0 | 0.00 | 0.00 | 0.00 | 71 | 1017.8 |
| 20260506195108 | 85 | 103 | 2.0 | 2.0 | 0.00 | 0.00 | 0.00 | 72 | 1017.9 |
| 20260506194605 | 86 | 129 | 5.0 | 6.0 | 0.00 | 0.00 | 0.00 | 69 | 1017.8 |
| 20260506194101 | 85 | 98 | 0.0 | 1.0 | 0.00 | 0.00 | 0.00 | 71 | 1017.8 |
| 20260506193559 | 85 | 140 | 5.0 | 6.0 | 0.00 | 0.00 | 0.00 | 69 | 1018.0 |
| 20260506193056 | 85 | 100 | 4.0 | 5.0 | 0.00 | 0.00 | 0.00 | 69 | 1018.2 |
| 20260506192553 | 85 | 156 | 3.0 | 3.0 | 0.00 | 0.00 | 0.00 | 70 | 1018.2 |
| 20260506192049 | 85 | 186 | 4.0 | 5.0 | 0.00 | 0.00 | 0.00 | 70 | 1018.2 |
| 20260506191545 | 85 | 129 | 4.0 | 5.0 | 0.00 | 0.00 | 0.00 | 70 | 1018.3 |
| 20260506191041 | 85 | 143 | 5.0 | 6.0 | 0.00 | 0.00 | 0.00 | 69 | 1018.2 |
| 20260506190539 | 84 | 83 | 2.0 | 3.0 | 0.00 | 0.00 | 0.00 | 71 | 1018.2 |
| 20260506190036 | 85 | 122 | 2.0 | 2.0 | 0.00 | 0.00 | 0.00 | 70 | 1018.3 |
| 20260506185533 | 84 | 129 | 6.0 | 7.0 | 0.00 | 0.00 | 0.00 | 71 | 1018.3 |
| 20260506185030 | 85 | 147 | 7.0 | 7.0 | 0.00 | 0.00 | 0.00 | 70 | 1018.5 |
| 20260506184527 | 84 | 143 | 5.0 | 7.0 | 0.00 | 0.00 | 0.00 | 69 | 1018.4 |
| 20260506184024 | 84 | 103 | 6.0 | 7.0 | 0.00 | 0.00 | 0.00 | 69 | 1018.4 |
| 20260506183520 | 84 | 66 | 3.0 | 5.0 | 0.00 | 0.00 | 0.00 | 71 | 1018.7 |
| 20260506183017 | 86 | 114 | 5.0 | 6.0 | 0.00 | 0.00 | 0.00 | 67 | 1018.8 |
| 20260506182514 | 85 | 122 | 4.0 | 5.0 | 0.00 | 0.00 | 0.00 | 68 | 1018.7 |
| 20260506182011 | 86 | 135 | 3.0 | 3.0 | 0.00 | 0.00 | 0.00 | 68 | 1018.8 |
| 20260506181509 | 85 | 83 | 2.0 | 3.0 | 0.00 | 0.00 | 0.00 | 68 | 1018.7 |
| 20260506181006 | 85 | 109 | 2.0 | 2.0 | 0.00 | 0.00 | 0.00 | 68 | 1018.9 |
| 20260506180502 | 85 | 120 | 5.0 | 6.0 | 0.00 | 0.00 | 0.00 | 68 | 1018.8 |
| 20260506175959 | 85 | 124 | 6.0 | 7.0 | 0.00 | 0.00 | 0.00 | 68 | 1019.0 |
| 20260506175455 | 85 | 130 | 4.0 | 5.0 | 0.00 | 0.00 | 0.00 | 69 | 1019.0 |
| 20260506174952 | 84 | 105 | 6.0 | 7.0 | 0.00 | 0.00 | 0.00 | 69 | 1018.9 |
| 20260506174450 | 86 | 156 | 3.0 | 5.0 | 0.00 | 0.00 | 0.00 | 67 | 1019.0 |
| 20260506173946 | 85 | 135 | 1.0 | 2.0 | 0.00 | 0.00 | 0.00 | 70 | 1019.1 |
| 20260506173444 | 85 | 154 | 4.0 | 6.0 | 0.00 | 0.00 | 0.00 | 67 | 1019.1 |
| 20260506172940 | 86 | 101 | 2.0 | 3.0 | 0.00 | 0.00 | 0.00 | 68 | 1019.2 |
| 20260506172438 | 85 | 102 | 3.0 | 5.0 | 0.00 | 0.00 | 0.00 | 69 | 1019.1 |
| 20260506171934 | 86 | 122 | 4.0 | 6.0 | 0.00 | 0.00 | 0.00 | 69 | 1019.2 |
| 20260506171431 | 86 | 113 | 0.0 | 1.0 | 0.00 | 0.00 | 0.00 | 68 | 1019.0 |
| 20260506170924 | 85 | 116 | 2.0 | 2.0 | 0.00 | 0.00 | 0.00 | 69 | 1019.0 |
| 20260506170419 | 85 | 146 | 4.0 | 6.0 | 0.00 | 0.00 | 0.00 | 68 | 1019.3 |
| 20260506165913 | 86 | 77 | 3.0 | 3.0 | 0.00 | 0.00 | 0.00 | 68 | 1019.2 |
| 20260506165411 | 85 | 133 | 5.0 | 6.0 | 0.00 | 0.00 | 0.00 | 68 | 1019.2 |
| 20260506164907 | 85 | 75 | 2.0 | 3.0 | 0.00 | 0.00 | 0.00 | 69 | 1019.3 |
| 20260506164403 | 84 | 110 | 2.0 | 3.0 | 0.00 | 0.00 | 0.00 | 70 | 1019.2 |